Location: ČR
(50.0000°N, 15.0000°E)
Time: 21:31:06
(UTC+00:00)

Vanguard 3 - Pass Details

Date: 26 October 2021
Orbit: 508 x 3260 km, 33.4° (Epoch: 04 December)

Event Time Altitude Azimuth Distance (km) Brightness Sun altitude
Rises 19:50:57 0° 256° (WSW) 4,263 11.4 -38.7°
Reaches altitude 10° 19:54:21 10° 240° (WSW) 3,688 10.7 -39.2°
Enters shadow 20:00:05 21° 204° (SSW) 3,523 10.2 -40.0°
Maximum altitude 20:01:14 21° 197° (SSW) 3,615 - -40.1°
Drops below altitude 10° 20:10:45 10° 156° (SSE) 5,296 - -41.4°
Sets 20:17:11 0° 144° (SE) 6,743 - -42.2°
